Weather History for Oceana NAS, VA

Change the Weather History Date:

Friday, June 28, 2013

  Actual Average Record
Temperature  
Mean Temperature 83 °F -  
Max Temperature 91 °F 83 °F 96 °F (2011)
Min Temperature 75 °F 67 °F 61 °F (1997)
Cooling Degree Days 18    
Growing Degree Days 33 (Base 50)    
Moisture  
Dew Point 73 °F    
Average Humidity 74    
Maximum Humidity 94    
Minimum Humidity 44    
Precipitation  
Precipitation 0.05 in - - ()
Sea Level Pressure  
Sea Level Pressure 29.63 in    
Wind  
Wind Speed 14 mph (SW)    
Max Wind Speed 21 mph    
Max Gust Speed 26 mph    
Visibility 10 miles    
Events Rain , Thunderstorm    
Averages and records for this station are not official NWS values.
T = Trace of Precipitation, MM = Missing Value Source: NWS Daily Summary

Daily Weather History Graph

Daily Weather History Graph

Search for Another Location

Airport:

Trip Planner

Search our weather history database for the weather conditions in past years. The results will help you decide how hot, cold, wet, or windy it might be!

Date:

Astronomy

Jun. 28, 2013 Rise Set
Actual Time 5:47 AM EDT 8:27 PM EDT
Civil Twilight 5:16 AM EDT 8:57 PM EDT
Nautical Twilight 4:38 AM EDT 9:36 PM EDT
Astronomical Twilight 3:55 AM EDT 10:18 PM EDT
Moon No Moon Rise 11:43 AM EDT (6/28)
Length of Visible Light 15h 41m
Length of Day
14h 39m
Waning Gibbous, 66% of the Moon is Illuminated
Jun 28
Waning Gibbous
Jun 30
Last Quarter
Jul 8
New
Jul 15
First Quarter
Jul 22
Full

Hourly Weather History & Observations

Time (EDT) Temp. Heat Index Dew Point Humidity Pressure Visibility Wind Dir Wind Speed Gust Speed Precip Events Conditions
12:56 AM 77.0 °F - 73.0 °F 88% 29.71 in 10.0 mi SW 16.1 mph 26.5 mph N/A   Mostly Cloudy
1:56 AM 77.0 °F - 73.0 °F 88% 29.70 in 10.0 mi SSW 13.8 mph - N/A   Mostly Cloudy
2:56 AM 75.9 °F - 73.0 °F 91% 29.68 in 10.0 mi SW 13.8 mph - N/A   Overcast
3:08 AM 75.2 °F - 73.4 °F 94% 29.67 in 10.0 mi SSW 17.3 mph - N/A   Overcast
3:56 AM 75.9 °F - 73.9 °F 94% 29.67 in 10.0 mi SW 13.8 mph - N/A   Mostly Cloudy
4:56 AM 77.0 °F - 73.9 °F 90% 29.65 in 10.0 mi SW 12.7 mph 20.7 mph N/A   Overcast
5:56 AM 77.0 °F - 75.0 °F 94% 29.65 in 10.0 mi SW 8.1 mph - N/A   Overcast
6:56 AM 77.0 °F - 75.0 °F 94% 29.68 in 10.0 mi WSW 10.4 mph - N/A   Mostly Cloudy
7:56 AM 78.1 °F - 75.0 °F 90% 29.68 in 10.0 mi SW 12.7 mph - N/A   Mostly Cloudy
8:56 AM 81.0 °F 86.7 °F 75.0 °F 82% 29.66 in 10.0 mi SW 16.1 mph - N/A   Mostly Cloudy
9:56 AM 84.0 °F 91.2 °F 73.9 °F 72% 29.65 in 10.0 mi SW 15.0 mph - N/A   Scattered Clouds
10:56 AM 86.0 °F 93.0 °F 73.0 °F 65% 29.65 in 10.0 mi WSW 16.1 mph 21.9 mph N/A   Scattered Clouds
11:56 AM 88.0 °F 96.5 °F 73.9 °F 63% 29.64 in 10.0 mi SW 12.7 mph 21.9 mph N/A   Scattered Clouds
12:56 PM 90.0 °F 97.9 °F 73.0 °F 57% 29.63 in 10.0 mi WSW 16.1 mph - N/A   Scattered Clouds
1:56 PM 91.0 °F 97.6 °F 71.1 °F 52% 29.62 in 10.0 mi WSW 16.1 mph 21.9 mph N/A   Scattered Clouds
2:56 PM 91.9 °F 98.4 °F 71.1 °F 50% 29.60 in 10.0 mi SW 15.0 mph - N/A   Scattered Clouds
3:56 PM 91.9 °F 95.4 °F 66.9 °F 44% 29.58 in 10.0 mi SW 15.0 mph 20.7 mph N/A   Scattered Clouds
4:56 PM 91.9 °F 96.9 °F 69.1 °F 47% 29.57 in 10.0 mi SW 12.7 mph 19.6 mph N/A   Scattered Clouds
5:56 PM 90.0 °F 94.5 °F 69.1 °F 50% 29.57 in 10.0 mi SW 13.8 mph - N/A   Mostly Cloudy
6:56 PM 88.0 °F 92.9 °F 70.0 °F 55% 29.57 in 10.0 mi SW 10.4 mph - N/A   Mostly Cloudy
7:49 PM 87.8 °F 93.8 °F 71.6 °F 58% 29.57 in 10.0 mi SSW 16.1 mph 20.7 mph N/A   Mostly Cloudy
7:56 PM 87.1 °F 92.8 °F 71.1 °F 59% 29.58 in 10.0 mi SSW 12.7 mph 20.7 mph N/A   Mostly Cloudy
8:37 PM 86.0 °F 93.4 °F 73.4 °F 66% 29.58 in 10.0 mi SSW 13.8 mph - 0.00 in Rain Light Rain
8:56 PM 82.9 °F 90.8 °F 75.9 °F 79% 29.58 in 9.0 mi SW 13.8 mph - 0.01 in Rain , Thunderstorm Light Thunderstorms and Rain
9:26 PM 80.6 °F 87.1 °F 77.0 °F 89% 29.57 in 9.0 mi WSW 9.2 mph - 0.03 in Rain Light Rain
9:56 PM 78.1 °F - 75.0 °F 90% 29.60 in 10.0 mi WSW 15.0 mph - 0.04 in Rain Light Rain
10:32 PM 75.2 °F - 69.8 °F 83% 29.60 in 10.0 mi SW 20.7 mph 26.5 mph 0.00 in   Overcast
10:56 PM 75.0 °F - 71.1 °F 87% 29.61 in 10.0 mi SW 13.8 mph - 0.00 in   Overcast
11:56 PM 75.9 °F - 69.1 °F 79% 29.61 in 10.0 mi SW 16.1 mph 25.3 mph N/A   Overcast